| time (UTC) | temp C | wind direction | speed KPH | gust KPH | rain 1hr cm | rain 24hr cm | rain mn cm | humidity % | barometer mb |
| 20260504214537 | 20 | 206 | 11.3 | 24.1 | 0.00 | 0.00 | 0.00 | 36 | 1007.5 |
| 20260504213040 | 19 | 142 | 8.0 | 24.1 | 0.00 | 0.00 | 0.00 | 38 | 1007.6 |
| 20260504211536 | 19 | 219 | 8.0 | 25.7 | 0.00 | 0.00 | 0.00 | 38 | 1007.6 |
| 20260504210037 | 20 | 197 | 8.0 | 27.4 | 0.00 | 0.00 | 0.00 | 37 | 1007.7 |
| 20260504204557 | 20 | 200 | 14.5 | 32.2 | 0.00 | 0.00 | 0.00 | 36 | 1007.5 |
| 20260504203043 | 20 | 118 | 11.3 | 29.0 | 0.00 | 0.00 | 0.00 | 37 | 1007.6 |
| 20260504201542 | 20 | 136 | 12.9 | 27.4 | 0.00 | 0.00 | 0.00 | 37 | 1007.7 |
| 20260504200044 | 20 | 239 | 11.3 | 29.0 | 0.00 | 0.00 | 0.00 | 36 | 1007.7 |
| 20260504194541 | 20 | 214 | 12.9 | 24.1 | 0.00 | 0.00 | 0.00 | 38 | 1007.9 |
| 20260504193037 | 20 | 204 | 11.3 | 30.6 | 0.00 | 0.00 | 0.00 | 37 | 1007.9 |
| 20260504191544 | 20 | 227 | 14.5 | 41.8 | 0.00 | 0.00 | 0.00 | 37 | 1008.3 |
| 20260504190044 | 18 | 210 | 12.9 | 32.2 | 0.00 | 0.00 | 0.00 | 40 | 1008.3 |
| 20260504184543 | 18 | 224 | 11.3 | 35.4 | 0.00 | 0.00 | 0.00 | 38 | 1008.6 |
| 20260504183040 | 19 | 136 | 16.1 | 30.6 | 0.00 | 0.00 | 0.00 | 37 | 1008.2 |
| 20260504181544 | 19 | 181 | 14.5 | 30.6 | 0.00 | 0.00 | 0.00 | 37 | 1008.6 |
| 20260504180037 | 18 | 211 | 16.1 | 32.2 | 0.00 | 0.00 | 0.00 | 39 | 1008.5 |
| 20260504174536 | 19 | 179 | 14.5 | 38.6 | 0.00 | 0.00 | 0.00 | 38 | 1008.7 |
| 20260504173038 | 19 | 160 | 11.3 | 30.6 | 0.00 | 0.00 | 0.00 | 40 | 1008.7 |
| 20260504171544 | 18 | 187 | 9.7 | 41.8 | 0.00 | 0.00 | 0.00 | 41 | 1009.1 |
| 20260504081547 | 6 | 248 | 1.6 | 6.4 | 0.00 | 0.00 | 0.00 | 63 | 1010.9 |
| 20260504044535 | 6 | 0 | 0.0 | 0.0 | 0.00 | 0.00 | 0.00 | 75 | 1011.0 |
| 20260504043040 | 5 | 13 | 0.0 | 1.6 | 0.00 | 0.00 | 0.00 | 74 | 1011.1 |
| 20260504041540 | 5 | 0 | 0.0 | 0.0 | 0.00 | 0.00 | 0.00 | 74 | 1011.2 |
| 20260504040042 | 5 | 0 | 0.0 | 0.0 | 0.00 | 0.00 | 0.00 | 72 | 1011.0 |
| 20260504034540 | 5 | 0 | 0.0 | 1.6 | 0.00 | 0.00 | 0.00 | 74 | 1010.9 |
| 20260504033039 | 5 | 0 | 0.0 | 1.6 | 0.00 | 0.00 | 0.00 | 72 | 1010.9 |
| 20260504031538 | 5 | 0 | 0.0 | 1.6 | 0.00 | 0.00 | 0.00 | 71 | 1010.9 |
| 20260504030036 | 5 | 359 | 0.0 | 1.6 | 0.00 | 0.00 | 0.00 | 69 | 1010.9 |
| 20260504024541 | 6 | 0 | 0.0 | 1.6 | 0.00 | 0.00 | 0.00 | 65 | 1010.6 |
| 20260504023043 | 6 | 0 | 0.0 | 1.6 | 0.00 | 0.00 | 0.00 | 59 | 1010.9 |
| 20260504021538 | 6 | 0 | 0.0 | 1.6 | 0.00 | 0.00 | 0.00 | 59 | 1010.9 |
| 20260504020057 | 6 | 0 | 0.0 | 0.0 | 0.00 | 0.00 | 0.00 | 59 | 1010.9 |
| 20260504014548 | 6 | 0 | 0.0 | 1.6 | 0.00 | 0.00 | 0.00 | 58 | 1010.7 |
| 20260504013050 | 6 | 0 | 0.0 | 1.6 | 0.00 | 0.00 | 0.00 | 57 | 1010.5 |
| 20260504011543 | 6 | 0 | 0.0 | 1.6 | 0.00 | 0.00 | 0.00 | 54 | 1010.4 |
| 20260504010043 | 7 | 242 | 0.0 | 1.6 | 0.00 | 0.00 | 0.00 | 51 | 1010.3 |
| 20260504004550 | 7 | 0 | 0.0 | 1.6 | 0.00 | 0.00 | 0.00 | 50 | 1010.1 |
| 20260504003037 | 8 | 0 | 0.0 | 3.2 | 0.00 | 0.00 | 0.00 | 47 | 1010.0 |
| 20260504001545 | 8 | 0 | 0.0 | 6.4 | 0.00 | 0.00 | 0.00 | 48 | 1009.9 |
| 20260504000045 | 8 | 0 | 0.0 | 1.6 | 0.00 | 0.00 | 0.00 | 45 | 1009.7 |
| 20260503234543 | 8 | 0 | 0.0 | 3.2 | 0.00 | 0.00 | 0.00 | 45 | 1009.6 |
| 20260503233042 | 9 | 204 | 3.2 | 11.3 | 0.00 | 0.00 | 0.00 | 40 | 1009.4 |
| 20260503231540 | 10 | 203 | 6.4 | 11.3 | 0.00 | 0.00 | 0.00 | 38 | 1009.3 |
| 20260503230049 | 10 | 174 | 9.7 | 22.5 | 0.00 | 0.00 | 0.00 | 36 | 1009.1 |
| 20260503224536 | 10 | 160 | 4.8 | 17.7 | 0.00 | 0.00 | 0.00 | 34 | 1008.8 |
| 20260503223045 | 11 | 131 | 8.0 | 20.9 | 0.00 | 0.00 | 0.00 | 34 | 1008.9 |
| 20260503221541 | 11 | 200 | 11.3 | 24.1 | 0.00 | 0.00 | 0.00 | 34 | 1008.8 |
| 20260503220047 | 11 | 141 | 6.4 | 17.7 | 0.00 | 0.00 | 0.00 | 35 | 1009.0 |